Starlink 36236

operational
NORAD ID: 67078 Int'l Des: 2025-298 Owner: SPXS Country: US Constellation: starlink
LEOCIRCULAR

Über Starlink 36236

Beschreibung wird geladen...

Live-Position

3D-Globus wird geladen...

Nächste Überflüge

Höhenverlauf

Altitude vs Time

uPlot chart will show altitude changes over time

Zweizeiliger Elementsatz

1 67078C 25298D 25349.42131944 -.00897210 00000+0 -13720-2 0 3497
2 67078 70.0022 243.0166 0005592 274.7495 177.4960 16.05042604 15
Epoch: 15. Dez. 2025 • Age: 59 hours

Aktueller Status

Höhe 278.1 km
Geschwindigkeit 7.74 km/s
Subsatellitenpunkt 42.29°N, 0.15°W
Startdatum 14. Dez. 2025
Alter 3 days
Typ internet

Technische Details

Klassifizierung Payload
Masse 575.00 kg
Trockenmasse 530.00 kg
Gesamtmasse 575.00 kg
Länge 0.30 m
Durchmesser 4.10 m
Spannweite 29.00 m
Form Box + pan
Hersteller SPXS
Bus-Typ Starlink V2MO
Phasenstatus In Orbit
Besitzer/Staat SPXS/US

Große Konstellationen

Loading constellations...